{"data":{"norad_id":68294,"epoch":"2026-09-20T02:21:42.871968Z","epoch_age_seconds":85803,"freshness":"FRESH","line1":"1 68294U 26057A   26263.09841287  .00007395  00000+0  23114-3 0  9994","line2":"2 68294  97.2846  28.5257 0001612  86.6538 273.4889 15.33447875 28459","mean_motion":15.33447875,"eccentricity":0.0001612,"inclination_deg":97.2846,"raan_deg":28.5257,"arg_perigee_deg":86.6538,"mean_anomaly_deg":273.4889,"bstar":0.00023114,"rev_number":2845,"period_min":93.906028595853,"perigee_km":464.431420649,"apogee_km":466.63782037946,"semimajor_km":6843.6716205142,"source":"CELESTRAK","updated_at":"2026-09-20T09:00:43.852543Z"}}